Previsão horária em Allende

Hoje, 25 Junho, Sexta-feira

Tempo Temperatura Precipitação Vento Pressão Humidade
00:00 +31°C° 0 mm 8 m/s 725 mmHg 62%
01:00 +29°C° 0 mm 8 m/s 725 mmHg 66%
02:00 +28°C° 0 mm 7 m/s 725 mmHg 70%
03:00 +27°C° 0 mm 6 m/s 725 mmHg 74%
04:00 +27°C° 0 mm 6 m/s 725 mmHg 78%
05:00 +26°C° 0 mm 5 m/s 725 mmHg 83%
06:00 +28°C° 0 mm 5 m/s 726 mmHg 76%
07:00 +29°C° 0 mm 5 m/s 726 mmHg 70%
08:00 +30°C° 0 mm 5 m/s 726 mmHg 63%
09:00 +33°C° 0 mm 6 m/s 726 mmHg 54%
10:00 +35°C° 0 mm 6 m/s 726 mmHg 44%
11:00 +38°C° 0 mm 6 m/s 726 mmHg 35%
12:00 +39°C° 0 mm 7 m/s 725 mmHg 32%
13:00 +40°C° 0 mm 7 m/s 724 mmHg 28%
14:00 +41°C° 0 mm 7 m/s 724 mmHg 25%
15:00 +41°C° 0 mm 8 m/s 723 mmHg 24%
16:00 +41°C° 0 mm 8 m/s 723 mmHg 24%
17:00 +42°C° 0 mm 9 m/s 722 mmHg 23%
18:00 +39°C° 0 mm 9 m/s 722 mmHg 27%
19:00 +38°C° 0 mm 9 m/s 723 mmHg 31%
20:00 +36°C° 0 mm 10 m/s 723 mmHg 36%
21:00 +34°C° 0 mm 10 m/s 724 mmHg 46%
22:00 +32°C° 0 mm 10 m/s 724 mmHg 56%
23:00 +29°C° 0 mm 10 m/s 724 mmHg 66%

Amanhã, 26 Junho, Sábado

Tempo Temperatura Precipitação Vento Pressão Humidade
00:00 +28°C° 0 mm 9 m/s 724 mmHg 70%
01:00 +28°C° 0 mm 8 m/s 724 mmHg 75%
02:00 +27°C° 0 mm 7 m/s 724 mmHg 79%
03:00 +27°C° 0 mm 7 m/s 724 mmHg 80%
04:00 +27°C° 0 mm 7 m/s 724 mmHg 82%
05:00 +26°C° 0 mm 6 m/s 724 mmHg 83%
06:00 +28°C° 0 mm 6 m/s 724 mmHg 76%
07:00 +29°C° 0 mm 6 m/s 724 mmHg 69%
08:00 +30°C° 0 mm 7 m/s 725 mmHg 62%
09:00 +33°C° 0 mm 7 m/s 725 mmHg 53%
10:00 +35°C° 0 mm 7 m/s 725 mmHg 45%
11:00 +38°C° 0 mm 8 m/s 724 mmHg 37%
12:00 +39°C° 0 mm 8 m/s 724 mmHg 33%
13:00 +40°C° 0 mm 8 m/s 723 mmHg 29%
14:00 +41°C° 0 mm 8 m/s 723 mmHg 25%
15:00 +42°C° 0 mm 9 m/s 722 mmHg 25%
16:00 +40°C° 0 mm 9 m/s 722 mmHg 25%
17:00 +40°C° 0 mm 9 m/s 722 mmHg 25%
18:00 +39°C° 0 mm 9 m/s 722 mmHg 29%
19:00 +37°C° 0 mm 9 m/s 722 mmHg 34%
20:00 +34°C° 0 mm 9 m/s 722 mmHg 39%
21:00 +33°C° 0 mm 9 m/s 723 mmHg 46%
22:00 +31°C° 0 mm 10 m/s 723 mmHg 54%
23:00 +29°C° 0 mm 10 m/s 724 mmHg 62%

Depois de amanhã, 27 Junho, Domingo

Tempo Temperatura Precipitação Vento Pressão Humidade
00:00 +28°C° 0 mm 9 m/s 724 mmHg 66%
01:00 +27°C° 0 mm 8 m/s 724 mmHg 70%
02:00 +27°C° 0 mm 7 m/s 724 mmHg 75%
03:00 +26°C° 0 mm 6 m/s 724 mmHg 79%
04:00 +26°C° 0 mm 5 m/s 724 mmHg 82%
05:00 +25°C° 0 mm 4 m/s 724 mmHg 86%
06:00 +26°C° 0.1 mm 5 m/s 725 mmHg 81%
07:00 +27°C° 0.1 mm 5 m/s 725 mmHg 75%
08:00 +28°C° 0.1 mm 5 m/s 725 mmHg 70%
09:00 +30°C° 0.1 mm 5 m/s 725 mmHg 62%
10:00 +33°C° 0.1 mm 5 m/s 725 mmHg 53%
11:00 +34°C° 0.1 mm 5 m/s 725 mmHg 44%
12:00 +36°C° 0 mm 5 m/s 724 mmHg 39%
13:00 +38°C° 0 mm 6 m/s 724 mmHg 33%
14:00 +40°C° 0 mm 6 m/s 723 mmHg 28%
15:00 +39°C° 0 mm 7 m/s 723 mmHg 31%
16:00 +38°C° 0 mm 8 m/s 723 mmHg 35%
17:00 +35°C° 0 mm 9 m/s 722 mmHg 38%
18:00 +34°C° 0 mm 8 m/s 723 mmHg 42%
19:00 +33°C° 0 mm 8 m/s 723 mmHg 45%
20:00 +32°C° 0 mm 8 m/s 724 mmHg 49%
21:00 +30°C° 0.1 mm 7 m/s 724 mmHg 54%
22:00 +29°C° 0.1 mm 7 m/s 725 mmHg 60%
23:00 +28°C° 0.1 mm 7 m/s 725 mmHg 66%

28 Junho, Segunda-feira

Tempo Temperatura Precipitação Vento Pressão Humidade
00:00 +27°C° 0.2 mm 6 m/s 725 mmHg 70%
01:00 +27°C° 0.2 mm 5 m/s 725 mmHg 74%
02:00 +26°C° 0.2 mm 4 m/s 724 mmHg 79%
03:00 +25°C° 0.2 mm 4 m/s 725 mmHg 82%
04:00 +25°C° 0.2 mm 3 m/s 725 mmHg 86%
05:00 +24°C° 0.2 mm 2 m/s 725 mmHg 89%
06:00 +26°C° 1 mm 3 m/s 725 mmHg 82%
07:00 +27°C° 1 mm 3 m/s 726 mmHg 75%
08:00 +29°C° 1 mm 4 m/s 726 mmHg 68%
09:00 +30°C° 0.5 mm 4 m/s 726 mmHg 61%
10:00 +31°C° 0.5 mm 3 m/s 726 mmHg 54%
11:00 +34°C° 0.5 mm 3 m/s 726 mmHg 48%
12:00 +34°C° 0.1 mm 3 m/s 725 mmHg 45%
13:00 +35°C° 0.1 mm 3 m/s 725 mmHg 41%
14:00 +35°C° 0.1 mm 3 m/s 724 mmHg 38%
15:00 +34°C° 0 mm 4 m/s 724 mmHg 41%
16:00 +34°C° 0 mm 6 m/s 724 mmHg 43%
17:00 +33°C° 0 mm 8 m/s 724 mmHg 46%
18:00 +30°C° 0.6 mm 7 m/s 724 mmHg 57%
19:00 +28°C° 0.6 mm 7 m/s 725 mmHg 67%
20:00 +26°C° 0.6 mm 7 m/s 725 mmHg 78%
21:00 +26°C° 0.3 mm 6 m/s 726 mmHg 79%
22:00 +26°C° 0.3 mm 5 m/s 726 mmHg 80%
23:00 +26°C° 0.3 mm 4 m/s 726 mmHg 81%

29 Junho, Terça-feira

Tempo Temperatura Precipitação Vento Pressão Humidade
00:00 +26°C° 0.3 mm 4 m/s 726 mmHg 82%
01:00 +26°C° 0.3 mm 4 m/s 726 mmHg 82%
02:00 +25°C° 0.3 mm 4 m/s 726 mmHg 83%
03:00 +25°C° 0.1 mm 3 m/s 726 mmHg 86%
04:00 +25°C° 0.1 mm 3 m/s 726 mmHg 88%
05:00 +24°C° 0.1 mm 3 m/s 727 mmHg 91%
06:00 +26°C° 0.4 mm 4 m/s 727 mmHg 83%
07:00 +27°C° 0.4 mm 4 m/s 727 mmHg 74%
08:00 +29°C° 0.4 mm 5 m/s 728 mmHg 66%
09:00 +30°C° 0.2 mm 5 m/s 728 mmHg 59%
10:00 +33°C° 0.2 mm 6 m/s 728 mmHg 52%
11:00 +34°C° 0.2 mm 6 m/s 728 mmHg 45%
12:00 +34°C° 0 mm 6 m/s 727 mmHg 44%
13:00 +34°C° 0 mm 5 m/s 727 mmHg 43%
14:00 +34°C° 0 mm 5 m/s 726 mmHg 42%
15:00 +34°C° 0 mm 6 m/s 726 mmHg 43%
16:00 +34°C° 0 mm 7 m/s 726 mmHg 44%
17:00 +33°C° 0 mm 8 m/s 726 mmHg 45%
18:00 +32°C° 0 mm 7 m/s 726 mmHg 49%
19:00 +30°C° 0 mm 7 m/s 727 mmHg 54%
20:00 +29°C° 0 mm 6 m/s 727 mmHg 58%
21:00 +29°C° 0 mm 6 m/s 727 mmHg 62%
22:00 +28°C° 0 mm 6 m/s 727 mmHg 65%
23:00 +27°C° 0 mm 6 m/s 728 mmHg 69%

30 Junho, Quarta-feira

Tempo Temperatura Precipitação Vento Pressão Humidade
00:00 +27°C° 0 mm 5 m/s 728 mmHg 72%
01:00 +26°C° 0 mm 4 m/s 727 mmHg 75%
02:00 +25°C° 0 mm 3 m/s 727 mmHg 78%
03:00 +25°C° 0 mm 3 m/s 727 mmHg 80%
04:00 +25°C° 0 mm 2 m/s 727 mmHg 82%
05:00 +24°C° 0 mm 2 m/s 727 mmHg 84%
06:00 +26°C° 0 mm 3 m/s 728 mmHg 77%
07:00 +27°C° 0 mm 3 m/s 728 mmHg 69%
08:00 +28°C° 0 mm 4 m/s 729 mmHg 62%
09:00 +30°C° 0 mm 4 m/s 728 mmHg 56%
10:00 +32°C° 0 mm 5 m/s 728 mmHg 51%
11:00 +34°C° 0 mm 5 m/s 728 mmHg 45%
12:00 +34°C° 0 mm 6 m/s 727 mmHg 44%
13:00 +34°C° 0 mm 6 m/s 727 mmHg 43%
14:00 +34°C° 0 mm 6 m/s 726 mmHg 42%
15:00 +34°C° 0 mm 7 m/s 726 mmHg 42%
16:00 +33°C° 0 mm 7 m/s 726 mmHg 41%
17:00 +33°C° 0 mm 7 m/s 726 mmHg 41%
18:00 +32°C° 0 mm 6 m/s 726 mmHg 47%
19:00 +29°C° 0 mm 5 m/s 726 mmHg 53%
20:00 +28°C° 0 mm 5 m/s 726 mmHg 59%
21:00 +27°C° 0 mm 4 m/s 726 mmHg 64%
22:00 +27°C° 0 mm 4 m/s 726 mmHg 69%
23:00 +26°C° 0 mm 3 m/s 726 mmHg 74%
Mostrar mais